Starlink 32704

operational
NORAD ID: 62826 Int'l Des: 2025-018 Owner: SPXS Country: US Constellation: starlink
LEOCIRCULAR

Starlink 32704について

説明を読み込み中...

リアルタイム位置

3D地球を読み込み中...

次回通過

高度履歴

Altitude vs Time

uPlot chart will show altitude changes over time

軌道要素

1 62826U 25018W 26034.49864991 .00013729 00000-0 47483-3 0 9996
2 62826 53.1581 108.4262 0001048 63.1223 296.9885 15.30198345 57932
Epoch: Feb 3, 2026 • Age: 14 hours

現在のステータス

高度 480.1 km
速度 7.63 km/s
衛星直下点 -18.25°S, 72.4°W
打ち上げ日 Jan 24, 2025
運用期間 1 years
タイプ internet

技術仕様

分類 Payload
質量 730.00 kg
乾燥質量 700.00 kg
総質量 730.00 kg
長さ 0.30 m
直径 4.10 m
スパン 29.00 m
形状 Box + pan
製造者 SPXS
バスタイプ Starlink V2M
フェーズステータス In Orbit
所有者/国 SPXS/US

大規模コンステレーション

Loading constellations...